• In Portugal
  • List of Countries
  • For 7 days
  • Water Temperature
  • Satellite Maps
  • Weather Map
  • Weather Widgets
  • user-avatar
    Login

    Hourly Weather Amshanka

    Today, 21 May, Monday

    Time Temperature Precipitation Wind Pressure Humidity
    00:00 +8°C° 0 mm 0 mps 762 mmHg 71%
    01:00 +8°C° 0 mm 0 mps 762 mmHg 72%
    02:00 +7°C° 0 mm 0 mps 762 mmHg 77%
    03:00 +7°C° 0 mm 0 mps 763 mmHg 77%
    04:00 +8°C° 0 mm 0 mps 763 mmHg 76%
    05:00 +8°C° 0 mm 0 mps 763 mmHg 76%
    06:00 +11°C° 0 mm 0 mps 763 mmHg 68%
    07:00 +13°C° 0 mm 0 mps 764 mmHg 61%
    08:00 +18°C° 0 mm 1 mps 764 mmHg 54%
    09:00 +19°C° 0 mm 1 mps 764 mmHg 49%
    10:00 +21°C° 0 mm 1 mps 764 mmHg 45%
    11:00 +21°C° 0 mm 2 mps 764 mmHg 41%
    12:00 +23°C° 0 mm 2 mps 763 mmHg 40%
    13:00 +23°C° 0 mm 2 mps 763 mmHg 39%
    14:00 +24°C° 0 mm 3 mps 763 mmHg 38%
    15:00 +22°C° 0 mm 3 mps 762 mmHg 40%
    16:00 +22°C° 0 mm 3 mps 762 mmHg 42%
    17:00 +23°C° 0 mm 2 mps 762 mmHg 44%
    18:00 +20°C° 0 mm 2 mps 762 mmHg 53%
    19:00 +18°C° 0 mm 2 mps 762 mmHg 61%
    20:00 +16°C° 0 mm 1 mps 762 mmHg 70%
    21:00 +15°C° 0 mm 1 mps 762 mmHg 71%
    22:00 +14°C° 0 mm 1 mps 762 mmHg 73%
    23:00 +12°C° 0 mm 1 mps 763 mmHg 75%

    Tomorrow, 22 May, Tuesday

    Time Temperature Precipitation Wind Pressure Humidity
    00:00 +12°C° 0 mm 1 mps 763 mmHg 76%
    01:00 +11°C° 0 mm 1 mps 763 mmHg 78%
    02:00 +11°C° 0 mm 1 mps 763 mmHg 79%
    03:00 +11°C° 0 mm 1 mps 762 mmHg 79%
    04:00 +11°C° 0 mm 1 mps 762 mmHg 79%
    05:00 +11°C° 0 mm 1 mps 762 mmHg 79%
    06:00 +13°C° 0 mm 2 mps 762 mmHg 72%
    07:00 +15°C° 0 mm 2 mps 762 mmHg 65%
    08:00 +17°C° 0 mm 2 mps 762 mmHg 59%
    09:00 +18°C° 0 mm 3 mps 761 mmHg 57%
    10:00 +18°C° 0 mm 3 mps 761 mmHg 55%
    11:00 +19°C° 0 mm 4 mps 760 mmHg 53%
    12:00 +18°C° 0 mm 3 mps 760 mmHg 56%
    13:00 +17°C° 0 mm 3 mps 760 mmHg 59%
    14:00 +16°C° 0 mm 3 mps 760 mmHg 63%
    15:00 +16°C° 0 mm 2 mps 759 mmHg 66%
    16:00 +15°C° 0 mm 2 mps 759 mmHg 69%
    17:00 +15°C° 0 mm 2 mps 759 mmHg 72%
    18:00 +15°C° 0 mm 1 mps 758 mmHg 77%
    19:00 +14°C° 0 mm 1 mps 758 mmHg 82%
    20:00 +13°C° 0 mm 1 mps 758 mmHg 86%
    21:00 +13°C° 0 mm 1 mps 758 mmHg 89%
    22:00 +12°C° 0 mm 1 mps 758 mmHg 92%
    23:00 +12°C° 0 mm 1 mps 758 mmHg 95%

    Day after tomorrow, 23 May, Wednesday

    Time Temperature Precipitation Wind Pressure Humidity
    00:00 +11°C° 0 mm 1 mps 758 mmHg 96%
    01:00 +11°C° 0 mm 1 mps 758 mmHg 97%
    02:00 +10°C° 0 mm 1 mps 757 mmHg 97%
    03:00 +11°C° 0 mm 1 mps 757 mmHg 97%
    04:00 +11°C° 0 mm 1 mps 757 mmHg 96%
    05:00 +11°C° 0 mm 1 mps 757 mmHg 96%
    06:00 +13°C° 0 mm 1 mps 757 mmHg 88%
    07:00 +15°C° 0 mm 1 mps 757 mmHg 80%
    08:00 +18°C° 0 mm 1 mps 757 mmHg 73%
    09:00 +19°C° 0.6 mm 1 mps 757 mmHg 70%
    10:00 +21°C° 0.6 mm 1 mps 757 mmHg 67%
    11:00 +22°C° 0.6 mm 1 mps 757 mmHg 64%
    12:00 +22°C° 1 mm 1 mps 757 mmHg 65%
    13:00 +21°C° 1 mm 1 mps 756 mmHg 66%
    14:00 +21°C° 1 mm 1 mps 756 mmHg 66%
    15:00 +21°C° 0.4 mm 1 mps 756 mmHg 67%
    16:00 +21°C° 0.4 mm 1 mps 756 mmHg 67%
    17:00 +21°C° 0.4 mm 1 mps 756 mmHg 67%
    18:00 +19°C° 0.1 mm 2 mps 757 mmHg 74%
    19:00 +17°C° 0.1 mm 2 mps 757 mmHg 80%
    20:00 +15°C° 0.1 mm 2 mps 757 mmHg 87%
    21:00 +14°C° 0 mm 2 mps 758 mmHg 90%
    22:00 +13°C° 0 mm 2 mps 758 mmHg 92%
    23:00 +12°C° 0 mm 2 mps 759 mmHg 95%

    24 May, Thursday

    Time Temperature Precipitation Wind Pressure Humidity
    00:00 +12°C° 0 mm 2 mps 759 mmHg 95%
    01:00 +11°C° 0 mm 1 mps 759 mmHg 96%
    02:00 +11°C° 0 mm 1 mps 759 mmHg 96%
    03:00 +11°C° 0 mm 1 mps 759 mmHg 96%
    04:00 +11°C° 0 mm 1 mps 760 mmHg 95%
    05:00 +11°C° 0 mm 1 mps 760 mmHg 95%
    06:00 +13°C° 0 mm 1 mps 760 mmHg 87%
    07:00 +15°C° 0 mm 1 mps 760 mmHg 80%
    08:00 +18°C° 0 mm 1 mps 760 mmHg 73%
    09:00 +18°C° 0 mm 2 mps 760 mmHg 67%
    10:00 +20°C° 0 mm 2 mps 760 mmHg 60%
    11:00 +23°C° 0 mm 2 mps 760 mmHg 54%
    12:00 +23°C° 0.1 mm 2 mps 760 mmHg 54%
    13:00 +24°C° 0.1 mm 3 mps 760 mmHg 54%
    14:00 +24°C° 0.1 mm 3 mps 760 mmHg 54%
    15:00 +22°C° 0.2 mm 3 mps 760 mmHg 58%
    16:00 +22°C° 0.2 mm 3 mps 760 mmHg 61%
    17:00 +21°C° 0.2 mm 3 mps 760 mmHg 65%
    18:00 +20°C° 0 mm 3 mps 761 mmHg 70%
    19:00 +18°C° 0 mm 3 mps 761 mmHg 75%
    20:00 +17°C° 0 mm 3 mps 762 mmHg 80%
    21:00 +14°C° 0 mm 3 mps 762 mmHg 76%
    22:00 +13°C° 0 mm 3 mps 763 mmHg 73%
    23:00 +12°C° 0 mm 3 mps 763 mmHg 69%

    25 May, Friday

    Time Temperature Precipitation Wind Pressure Humidity
    00:00 +11°C° 0 mm 3 mps 764 mmHg 68%
    01:00 +10°C° 0 mm 3 mps 764 mmHg 66%
    02:00 +9°C° 0 mm 3 mps 765 mmHg 65%
    03:00 +8°C° 0 mm 3 mps 765 mmHg 64%
    04:00 +8°C° 0 mm 3 mps 765 mmHg 64%
    05:00 +7°C° 0 mm 3 mps 765 mmHg 64%
    06:00 +9°C° 0 mm 3 mps 765 mmHg 60%
    07:00 +10°C° 0 mm 3 mps 765 mmHg 56%
    08:00 +12°C° 0 mm 3 mps 766 mmHg 51%
    09:00 +13°C° 0 mm 3 mps 766 mmHg 48%
    10:00 +16°C° 0 mm 3 mps 766 mmHg 44%
    11:00 +17°C° 0 mm 3 mps 766 mmHg 41%
    12:00 +18°C° 0 mm 3 mps 765 mmHg 40%
    13:00 +18°C° 0 mm 3 mps 765 mmHg 39%
    14:00 +19°C° 0 mm 3 mps 765 mmHg 38%
    15:00 +18°C° 0 mm 3 mps 765 mmHg 39%
    16:00 +18°C° 0 mm 3 mps 765 mmHg 40%
    17:00 +18°C° 0 mm 3 mps 765 mmHg 41%
    18:00 +16°C° 0 mm 3 mps 765 mmHg 49%
    19:00 +14°C° 0 mm 2 mps 765 mmHg 57%
    20:00 +13°C° 0 mm 2 mps 765 mmHg 65%
    21:00 +11°C° 0 mm 1 mps 765 mmHg 66%
    22:00 +10°C° 0 mm 1 mps 766 mmHg 66%
    23:00 +9°C° 0 mm 1 mps 766 mmHg 67%

    26 May, Saturday

    Time Temperature Precipitation Wind Pressure Humidity
    00:00 +9°C° 0 mm 1 mps 766 mmHg 68%
    01:00 +8°C° 0 mm 1 mps 767 mmHg 69%
    02:00 +8°C° 0 mm 1 mps 767 mmHg 70%
    03:00 +8°C° 0 mm 1 mps 767 mmHg 70%
    04:00 +8°C° 0 mm 0 mps 767 mmHg 70%
    05:00 +8°C° 0 mm 0 mps 768 mmHg 70%
    06:00 +12°C° 0 mm 1 mps 768 mmHg 63%
    07:00 +14°C° 0 mm 1 mps 768 mmHg 55%
    08:00 +16°C° 0 mm 1 mps 768 mmHg 47%
    09:00 +19°C° 0 mm 1 mps 767 mmHg 44%
    10:00 +20°C° 0 mm 1 mps 767 mmHg 40%
    11:00 +22°C° 0 mm 1 mps 767 mmHg 36%
    12:00 +22°C° 0 mm 1 mps 767 mmHg 35%
    13:00 +23°C° 0 mm 1 mps 766 mmHg 35%
    14:00 +23°C° 0 mm 1 mps 766 mmHg 34%
    15:00 +23°C° 0 mm 1 mps 766 mmHg 37%
    16:00 +21°C° 0 mm 2 mps 765 mmHg 40%
    17:00 +21°C° 0 mm 2 mps 765 mmHg 42%
    18:00 +20°C° 0 mm 1 mps 765 mmHg 51%
    19:00 +18°C° 0 mm 1 mps 765 mmHg 59%
    20:00 +15°C° 0 mm 1 mps 765 mmHg 68%
    21:00 +14°C° 0 mm 1 mps 765 mmHg 69%
    22:00 +13°C° 0 mm 1 mps 765 mmHg 70%
    23:00 +13°C° 0 mm 1 mps 765 mmHg 71%
    Show more